Wind_Speed
6 5 5 5 6 6 6 6 5 6 7 7 6 6 7 9 10 10 11 11 12 11 11 10 9 9 8 8 7 7 6 6 6 6 6 6 5 6 7 8 9 10 11 12
5 5 5 5 6 6 6 5 5 6 7 7 7 7 8 9 10 10 11 12 12 11 11 10 8 8 8 7 6 6 6 6 6 5 4 4 5 6 7 8 9 9 10 11
5 5 6 6 6 5 5 4 4 5 5 7 7 7 7 9 9 10 11 11 11 10 10 9 8 7 6 6 5 5 5 5 5 4 4 5 5 6 8 8 9 9 10 11
5 5 5 5 5 5 5 5 5 5 5 7 7 7 8 9 9 10 11 10 10 9 9 9 7 7 5 5 5 4 4 4 5 4 5 6 7 8 8 8 9 9 10 11
4 5 5 5 5 5 5 6 5 5 6 7 7 8 8 9 9 10 10 10 9 9 8 8 7 7 6 6 5 5 5 5 5 5 5 6 7 8 8 7 8 9 10 10
5 5 5 6 6 6 6 6 5 6 6 7 7 8 9 9 9 10 9 9 9 8 8 7 7 7 6 6 5 5 5 5 5 5 6 7 8 8 7 7 8 9 10 11
6 6 6 6 6 6 6 6 5 6 7 8 8 8 9 9 9 9 9 8 8 7 7 7 7 6 6 6 5 4 5 5 5 5 6 7 7 7 7 8 9 10 11 12
7 7 7 7 7 7 7 7 7 7 8 8 8 8 9 9 9 9 8 7 7 7 6 6 6 6 6 6 6 6 6 6 6 6 7 7 8 7 8 8 10 10 11 12
8 8 8 8 7 7 7 7 7 7 7 8 8 8 8 8 9 9 8 7 7 7 6 6 6 6 6 6 6 6 6 6 6 7 7 8 8 8 8 9 10 11 12 13
9 8 9 8 7 7 7 7 7 7 7 7 7 7 7 8 8 9 8 7 7 7 7 6 6 6 6 6 6 7 7 7 7 7 8 8 8 9 9 10 11 12 13 15
10 10 10 9 8 8 8 8 8 7 7 7 8 8 8 8 8 9 9 8 7 6 6 6 6 6 6 6 6 7 7 7 8 8 9 10 10 11 11 12 12 13 15 15
11 10 10 10 10 10 10 9 9 9 9 8 8 9 9 8 8 8 8 7 7 6 6 6 6 6 6 6 7 8 8 8 9 9 9 10 11 12 12 13 13 14 15 17
11 11 11 11 11 11 10 10 10 10 10 9 9 10 9 9 9 8 8 7 6 6 6 6 7 6 7 7 8 8 8 9 9 10 10 10 11 12 12 13 14 15 16 17
12 12 12 12 12 11 11 12 11 11 11 11 10 10 10 10 9 9 8 7 6 6 7 7 7 7 8 8 8 8 9 9 10 10 10 10 11 12 13 14 15 16 17 18
12 12 13 13 13 12 12 12 12 11 11 11 11 10 10 10 9 9 8 8 8 8 8 8 8 9 9 9 9 9 10 10 11 11 11 11 12 13 14 15 16 17 18 19
14 14 13 13 13 13 12 12 12 11 11 10 10 10 10 9 9 9 9 9 10 10 10 10 10 10 10 10 10 10 11 11 11 12 12 12 13 14 15 16 17 18 19 20
16 15 15 15 14 13 13 13 13 12 11 11 10 10 10 10 9 9 9 10 11 11 11 11 11 11 11 11 11 11 11 12 12 12 12 13 14 15 16 16 17 18 19 20
18 17 16 16 15 15 14 14 14 13 12 11 11 11 11 11 11 11 11 12 12 12 12 12 11 11 11 11 12 12 12 13 13 13 13 13 14 15 16 17 18 19 20 20
19 18 18 17 16 16 15 15 14 14 13 12 12 12 12 12 12 12 13 13 13 13 13 12 12 12 12 13 13 13 13 13 12 12 13 14 15 15 16 17 18 19 20 20
20 20 19 18 17 17 17 16 16 15 15 14 14 14 13 13 13 14 14 14 14 14 14 13 13 13 13 13 13 13 13 12 12 13 13 14 15 16 16 17 18 19 19 20
22 21 21 20 19 19 19 18 18 17 17 16 15 14 15 14 14 14 15 14 14 14 14 14 13 13 13 13 13 13 13 13 13 14 14 15 15 16 17 17 18 19 19 20
23 23 23 22 22 21 20 20 19 18 18 17 16 16 16 16 15 16 16 15 15 15 15 14 14 13 14 14 14 14 13 14 14 14 15 15 16 16 17 18 18 19 20 20
25 25 24 23 23 22 21 21 20 20 19 19 18 18 18 18 17 17 17 16 16 16 16 16 15 15 15 14 15 14 14 14 14 15 15 15 16 16 17 18 18 19 19 20
25 25 24 24 23 22 21 21 21 20 20 20 20 19 19 19 18 18 18 17 17 17 16 16 16 16 16 15 15 15 15 15 16 16 15 16 16 17 17 18 18 19 19 20
25 25 25 25 24 24 23 22 22 21 21 21 20 19 19 18 18 18 18 17 17 17 16 16 16 17 17 17 16 17 17 17 17 16 16 17 17 17 18 18 18 18 19 20
27 26 26 26 26 25 24 24 23 22 22 22 21 20 19 19 19 18 18 18 17 17 17 17 17 17 17 17 18 18 18 18 18 18 17 18 18 18 18 18 18 18 19 20
28 28 27 26 26 26 25 24 23 23 22 22 21 21 20 20 20 19 19 19 18 17 17 17 17 18 18 19 19 19 19 19 19 19 19 19 19 19 18 18 18 18 18 20
Wind_Direction
339 332 326 329 340 342 344 343 337 332 336 334 332 334 332 331 331 329 330 332 336 338 339 332 324 320 315 309 311 316 316 315 316 303 296 291 293 299 303 301 301 301 302 304
338 338 337 338 337 338 343 344 338 335 335 336 330 333 338 341 337 332 332 333 333 337 341 340 334 327 326 325 326 326 323 320 320 311 303 301 301 307 308 304 302 303 304 304
342 339 337 341 345 345 348 352 350 350 344 336 333 332 338 339 338 336 335 335 338 339 342 343 343 342 340 342 339 336 334 332 330 323 318 313 310 311 312 311 309 310 310 312
338 333 340 336 337 339 339 336 342 353 350 341 338 338 340 338 335 334 335 337 339 346 352 351 353 355 355 355 351 348 349 350 352 341 328 320 316 315 316 314 317 318 317 318
327 333 332 330 330 331 333 334 337 341 342 345 344 340 343 342 340 337 334 336 339 344 352 358 1 8 10 5 3 3 0 356 348 340 333 329 327 323 320 318 320 323 325 325
321 322 327 330 331 325 321 322 327 330 329 337 340 344 346 348 345 343 341 341 345 352 359 3 5 9 10 6 9 10 7 357 347 345 346 341 335 329 324 325 328 328 327 328
309 310 317 324 323 316 312 317 310 319 323 330 336 338 342 346 345 345 343 344 348 348 353 359 3 5 8 6 5 2 358 353 352 348 346 345 343 338 336 334 333 330 329 330
297 299 306 315 318 314 314 312 309 316 322 328 330 332 335 339 342 344 344 344 346 346 349 356 359 360 0 359 360 359 349 345 347 346 347 348 350 347 342 337 338 337 337 339
291 293 297 310 315 311 308 308 307 315 320 323 324 329 334 335 338 341 344 348 349 348 348 351 353 353 354 360 357 356 353 350 348 348 348 348 349 349 345 344 345 344 342 342
286 287 289 299 305 306 306 306 305 312 316 316 323 329 331 331 334 339 343 341 342 338 338 342 346 348 350 351 349 347 348 349 348 348 349 349 350 351 348 345 342 341 339 339
285 283 283 289 293 298 300 300 298 301 307 307 312 317 317 322 326 329 336 337 339 344 344 344 345 344 343 342 344 346 347 349 349 350 351 351 349 346 343 341 339 339 338 337
282 280 283 284 287 289 291 292 291 293 297 297 303 309 308 313 318 323 328 330 331 339 346 350 350 347 346 344 348 349 348 347 349 349 347 345 344 345 343 339 336 335 335 336
277 277 279 281 284 284 284 286 286 289 292 291 294 301 303 306 309 313 317 320 325 333 336 339 342 340 338 335 337 340 340 339 338 339 338 338 341 343 342 341 337 334 334 335
276 278 277 279 283 281 281 282 284 282 287 288 291 295 297 299 300 305 308 310 311 317 323 327 330 328 328 327 328 332 333 333 333 333 332 334 337 339 339 339 338 336 336 335
274 277 278 278 279 279 280 279 281 282 283 286 290 292 293 295 295 294 298 301 302 305 310 312 315 318 320 322 323 324 325 328 329 329 331 331 334 336 337 337 336 336 336 335
270 274 276 277 279 278 276 276 278 283 282 282 286 288 289 290 290 289 290 293 294 295 299 301 304 309 313 315 318 320 321 322 324 326 328 330 330 332 334 334 334 334 335 335
266 269 272 274 277 276 275 275 277 279 280 279 282 283 285 285 287 288 289 293 296 296 296 296 299 302 305 308 311 313 316 319 321 322 325 328 328 330 331 331 332 333 334 334
264 267 268 270 272 272 272 273 274 278 278 274 274 278 280 282 285 286 288 293 296 295 294 294 297 297 300 304 306 309 311 314 316 316 318 322 325 327 330 330 332 332 333 333
259 263 264 266 268 269 269 270 273 276 277 276 274 274 276 279 282 286 289 291 291 292 293 294 295 295 297 299 303 305 308 311 313 313 314 317 320 324 327 329 331 334 335 334
256 258 261 262 264 266 267 269 270 272 273 273 273 273 274 277 280 283 286 289 292 292 291 292 293 291 295 299 302 303 307 310 311 311 312 315 319 323 326 328 329 332 334 336
254 256 258 259 261 263 266 268 269 269 269 270 271 271 273 276 278 282 285 287 290 290 289 290 291 291 292 296 298 301 306 309 310 312 313 316 319 322 324 327 328 331 332 334
254 255 256 257 259 262 264 267 267 267 267 268 270 271 271 273 276 278 281 285 287 287 286 287 288 289 290 292 294 296 300 304 307 309 312 316 319 321 323 325 326 329 331 332
254 255 255 257 258 261 263 265 265 265 265 266 267 269 270 270 272 275 277 280 283 285 285 284 283 284 287 290 291 291 294 298 303 306 309 314 318 321 324 327 329 331 332 332
254 255 256 256 256 258 260 263 264 263 264 265 266 268 270 271 272 273 274 277 280 282 282 282 282 282 284 287 288 287 290 294 298 301 304 310 314 318 322 324 328 331 334 334
253 254 255 255 255 257 258 260 261 262 263 264 263 265 267 268 270 272 274 276 277 279 280 279 279 280 281 282 284 286 289 292 295 297 299 304 308 312 316 321 325 329 333 335
251 252 254 255 255 256 258 260 260 260 260 261 261 262 263 266 269 272 273 274 276 277 278 278 278 279 280 281 282 286 288 291 292 294 297 300 303 306 309 314 321 325 328 331
252 253 254 255 255 256 256 258 259 259 259 258 258 260 262 264 266 269 271 273 275 276 277 277 278 280 281 280 281 284 286 287 289 292 295 297 300 302 305 309 315 320 325 329
Height
5812 5811 5810 5809 5808 5807 5806 5805 5805 5803 5802 5801 5799 5798 5797 5795 5794 5792 5789 5787 5785 5783 5780 5778 5776 5775 5773 5772 5770 5769 5768 5767 5766 5765 5765 5765 5765 5765 5764 5763 5763 5762 5760 5758
5811 5810 5809 5808 5807 5806 5805 5804 5803 5803 5802 5800 5798 5797 5796 5794 5792 5790 5788 5786 5784 5781 5779 5777 5775 5773 5771 5770 5769 5768 5767 5766 5765 5764 5764 5764 5764 5763 5762 5761 5760 5759 5757 5755
5810 5809 5808 5808 5807 5806 5805 5804 5803 5802 5801 5799 5798 5796 5795 5793 5791 5789 5787 5785 5783 5780 5778 5776 5774 5772 5771 5769 5768 5767 5766 5765 5764 5764 5763 5763 5762 5762 5761 5759 5758 5756 5754 5752
5809 5809 5808 5809 5806 5805 5804 5803 5802 5801 5800 5798 5797 5795 5794 5792 5790 5788 5786 5784 5782 5779 5777 5775 5773 5771 5770 5769 5768 5767 5766 5765 5764 5764 5763 5762 5761 5760 5759 5757 5755 5754 5752 5750
5809 5808 5807 5807 5805 5804 5803 5802 5801 5800 5799 5798 5796 5795 5793 5791 5789 5787 5785 5783 5781 5779 5777 5775 5773 5772 5771 5770 5769 5767 5766 5765 5765 5764 5763 5762 5760 5758 5757 5755 5754 5752 5750 5748
5807 5807 5806 5806 5804 5803 5803 5801 5800 5799 5798 5797 5796 5795 5793 5791 5788 5786 5784 5782 5780 5778 5777 5775 5774 5772 5771 5770 5769 5768 5767 5766 5765 5763 5762 5761 5759 5757 5755 5754 5752 5750 5748 5746
5806 5805 5805 5804 5803 5802 5803 5802 5799 5798 5797 5796 5795 5794 5792 5790 5788 5785 5783 5782 5780 5778 5777 5776 5774 5773 5772 5770 5769 5768 5767 5766 5765 5763 5762 5760 5758 5756 5754 5753 5751 5749 5747 5744
5804 5804 5805 5802 5801 5801 5800 5798 5797 5797 5796 5795 5793 5792 5791 5789 5787 5785 5783 5781 5780 5778 5777 5776 5775 5773 5772 5771 5769 5768 5767 5766 5764 5763 5761 5759 5758 5756 5754 5752 5750 5748 5745 5742
5803 5804 5802 5800 5799 5798 5797 5797 5796 5795 5794 5793 5792 5791 5789 5788 5786 5784 5782 5781 5779 5778 5777 5776 5774 5773 5772 5771 5770 5768 5767 5766 5764 5762 5760 5759 5757 5755 5753 5751 5749 5746 5744 5741
5800 5800 5799 5798 5797 5797 5796 5795 5794 5793 5792 5792 5791 5789 5788 5787 5785 5784 5782 5780 5779 5777 5776 5775 5774 5773 5772 5771 5769 5768 5766 5765 5763 5762 5760 5758 5756 5754 5752 5750 5748 5745 5742 5739
5797 5797 5796 5796 5795 5795 5794 5793 5792 5792 5791 5790 5789 5788 5787 5785 5784 5782 5781 5779 5778 5777 5776 5774 5773 5772 5771 5770 5769 5767 5766 5764 5763 5761 5759 5757 5755 5753 5750 5748 5746 5744 5740 5737
5795 5794 5794 5793 5792 5792 5791 5791 5790 5789 5788 5788 5787 5786 5785 5784 5782 5781 5779 5778 5777 5776 5775 5774 5773 5772 5770 5769 5768 5766 5765 5763 5762 5760 5758 5756 5754 5752 5749 5746 5744 5741 5738 5735
5791 5791 5791 5790 5789 5789 5788 5787 5787 5786 5785 5785 5784 5783 5782 5782 5780 5779 5778 5777 5776 5775 5774 5773 5772 5771 5770 5768 5767 5766 5764 5762 5761 5759 5757 5755 5753 5750 5748 5745 5742 5738 5735 5732
5787 5787 5787 5787 5786 5785 5785 5784 5783 5783 5782 5782 5781 5780 5780 5779 5778 5777 5776 5775 5774 5773 5772 5771 5770 5769 5768 5767 5766 5764 5763 5761 5759 5757 5755 5753 5751 5748 5746 5742 5739 5736 5733 5729
5783 5783 5783 5783 5782 5781 5781 5780 5780 5779 5779 5778 5778 5777 5776 5776 5775 5774 5774 5773 5772 5771 5770 5769 5768 5768 5766 5765 5764 5762 5761 5759 5757 5755 5753 5751 5748 5746 5743 5740 5736 5733 5729 5726
5778 5779 5779 5778 5778 5777 5777 5777 5776 5776 5775 5775 5774 5774 5773 5773 5772 5771 5771 5770 5769 5769 5768 5767 5766 5765 5764 5763 5761 5760 5758 5757 5755 5753 5750 5748 5746 5743 5740 5737 5734 5730 5726 5722
5773 5774 5774 5774 5774 5773 5773 5773 5772 5772 5771 5771 5771 5771 5770 5769 5769 5768 5768 5767 5766 5765 5764 5764 5763 5762 5761 5760 5758 5757 5755 5754 5752 5750 5748 5745 5743 5740 5737 5734 5731 5727 5723 5719
5768 5768 5769 5769 5769 5769 5769 5768 5768 5768 5767 5767 5767 5767 5767 5766 5765 5765 5764 5764 5763 5762 5761 5760 5760 5759 5758 5756 5755 5753 5752 5750 5748 5746 5745 5742 5740 5737 5734 5731 5727 5723 5719 5715
5762 5762 5763 5763 5764 5764 5764 5764 5763 5763 5763 5763 5763 5763 5763 5762 5762 5761 5760 5760 5759 5758 5757 5756 5756 5755 5754 5753 5751 5750 5748 5746 5745 5743 5741 5739 5736 5734 5731 5727 5723 5720 5716 5712
5755 5756 5757 5757 5758 5758 5759 5758 5758 5758 5758 5758 5758 5758 5758 5758 5757 5757 5756 5755 5755 5754 5753 5752 5751 5751 5750 5749 5747 5746 5744 5742 5741 5739 5737 5735 5732 5730 5727 5723 5720 5716 5712 5708
5748 5749 5750 5751 5752 5752 5753 5753 5753 5753 5753 5753 5753 5753 5753 5753 5753 5752 5751 5751 5750 5749 5748 5748 5747 5746 5745 5744 5743 5742 5740 5738 5737 5735 5733 5731 5728 5726 5723 5720 5716 5713 5709 5705
5741 5742 5743 5744 5745 5746 5746 5746 5747 5747 5747 5747 5747 5748 5748 5748 5747 5747 5746 5746 5745 5744 5744 5743 5742 5742 5741 5740 5739 5737 5736 5735 5733 5731 5729 5727 5724 5722 5719 5716 5712 5709 5705 5701
5733 5734 5735 5737 5738 5738 5739 5739 5740 5740 5741 5741 5742 5742 5742 5742 5742 5741 5741 5741 5740 5739 5738 5738 5737 5737 5736 5735 5734 5732 5731 5730 5728 5727 5725 5722 5720 5718 5715 5712 5709 5705 5701 5698
5725 5726 5728 5729 5730 5731 5732 5732 5733 5733 5734 5734 5735 5735 5735 5735 5735 5735 5735 5735 5734 5733 5732 5732 5731 5731 5730 5729 5728 5727 5726 5725 5723 5722 5720 5718 5716 5714 5711 5708 5705 5701 5698 5694
5716 5718 5720 5721 5722 5723 5724 5725 5725 5726 5727 5728 5728 5728 5728 5729 5729 5729 5728 5728 5728 5727 5727 5726 5725 5724 5724 5723 5722 5721 5720 5719 5718 5716 5715 5713 5711 5709 5706 5704 5701 5697 5694 5691
5708 5709 5711 5713 5714 5715 5716 5717 5718 5719 5719 5720 5721 5721 5722 5722 5722 5722 5722 5722 5721 5721 5720 5720 5719 5718 5718 5717 5716 5715 5714 5713 5712 5710 5709 5708 5706 5704 5702 5699 5696 5693 5690 5687
5699 5700 5702 5704 5705 5706 5708 5709 5710 5711 5711 5712 5713 5714 5714 5715 5715 5715 5715 5715 5715 5714 5714 5713 5712 5712 5711 5710 5710 5709 5708 5707 5706 5704 5703 5702 5700 5698 5696 5694 5692 5689 5686 5683